Change the Weather History Date:

Tuesday, April 24, 2012

  Actual Average (KPOE) Record (KPOE)
Temperature  
Mean Temperature 62 °F -  
Max Temperature 78 °F 77 °F 88 °F (2011)
Min Temperature 45 °F 56 °F 46 °F (1998)
Degree Days  
Heating Degree Days 4    
Growing Degree Days 12 (Base 50)    
Moisture  
Dew Point 48 °F    
Average Humidity 62    
Maximum Humidity 93    
Minimum Humidity 34    
Precipitation  
Precipitation 0.00 in - - ()
Sea Level Pressure  
Sea Level Pressure 30.04 in    
Wind  
Wind Speed 4 mph (SSW)    
Max Wind Speed 10 mph    
Max Gust Speed -    
Visibility 10 miles    
Events      
Averages and records for this station are not official NWS values.
T = Trace of Precipitation, MM = Missing Value Source: NWS Daily Summary

Daily Weather History Graph

Daily Weather History Graph

Search for Another Location

Airport or City:

Trip Planner

Search our weather history database for the weather conditions in past years. The results will help you decide how hot, cold, wet, or windy it might be!

Date:

Astronomy

Apr. 24, 2012 Rise Set
Actual Time 6:34 AM CDT 7:47 PM CDT
Civil Twilight 6:09 AM CDT 8:12 PM CDT
Nautical Twilight 5:39 AM CDT 8:42 PM CDT
Astronomical Twilight 5:07 AM CDT 9:14 PM CDT
Moon 8:40 AM CDT (4/24) 10:58 PM CDT (4/24)
Length of Visible Light 14h 03m
Length of Day
13h 12m
Waxing Crescent, 10% of the Moon is Illuminated
Apr 24
Waxing Crescent
Apr 29
First Quarter
May 5
Full
May 12
Last Quarter
May 20
New

Hourly Weather History & Observations

Time (CDT) Temp. Dew Point Humidity Pressure Visibility Wind Dir Wind Speed Gust Speed Precip Events Conditions
12:53 AM 51.1 °F 46.9 °F 86% 30.08 in 10.0 mi Calm Calm - N/A   Clear
1:53 AM 50.0 °F 46.0 °F 86% 30.07 in 10.0 mi Calm Calm - N/A   Clear
2:53 AM 48.0 °F 45.0 °F 89% 30.06 in 10.0 mi East 5.8 mph - N/A   Clear
3:53 AM 48.0 °F 43.0 °F 83% 30.06 in 10.0 mi Calm Calm - N/A   Clear
4:53 AM 46.0 °F 43.0 °F 89% 30.06 in 10.0 mi Calm Calm - N/A   Clear
5:53 AM 45.0 °F 43.0 °F 93% 30.07 in 10.0 mi Calm Calm - N/A   Clear
6:53 AM 46.9 °F 44.1 °F 90% 30.08 in 9.0 mi Calm Calm - N/A   Clear
7:53 AM 54.0 °F 46.0 °F 75% 30.09 in 10.0 mi South 4.6 mph - N/A   Clear
8:53 AM 60.1 °F 46.9 °F 62% 30.10 in 10.0 mi South 4.6 mph - N/A   Clear
9:53 AM 66.0 °F 46.9 °F 50% 30.10 in 10.0 mi SSE 6.9 mph - N/A   Clear
10:53 AM 69.1 °F 46.0 °F 44% 30.11 in 10.0 mi SW 6.9 mph - N/A   Clear
11:53 AM 71.1 °F 46.0 °F 41% 30.10 in 10.0 mi South 5.8 mph - N/A   Clear
12:53 PM 73.9 °F 46.0 °F 37% 30.07 in 10.0 mi SSW 9.2 mph - N/A   Clear
1:53 PM 73.9 °F 45.0 °F 35% 30.06 in 10.0 mi West 5.8 mph - N/A   Clear
2:53 PM 77.0 °F 46.9 °F 34% 30.02 in 10.0 mi Variable 4.6 mph - N/A   Clear
3:53 PM 78.1 °F 48.0 °F 35% 29.99 in 10.0 mi WSW 8.1 mph - N/A   Clear
4:53 PM 78.1 °F 48.9 °F 36% 29.98 in 10.0 mi SSW 9.2 mph - N/A   Clear
5:53 PM 78.1 °F 50.0 °F 37% 29.97 in 10.0 mi SSW 6.9 mph - N/A   Clear
6:53 PM 75.0 °F 52.0 °F 44% 29.95 in 10.0 mi South 10.4 mph - N/A   Clear
7:53 PM 71.1 °F 54.0 °F 55% 29.95 in 10.0 mi South 8.1 mph - N/A   Clear
8:53 PM 69.1 °F 55.0 °F 61% 29.96 in 10.0 mi South 6.9 mph - N/A   Clear
9:53 PM 66.9 °F 57.0 °F 70% 29.97 in 10.0 mi SSW 9.2 mph - N/A   Clear
10:53 PM 64.9 °F 57.0 °F 75% 29.98 in 10.0 mi SSW 10.4 mph - N/A   Clear
11:53 PM 64.0 °F 57.0 °F 78% 29.98 in 10.0 mi SSW 10.4 mph - N/A   Clear